Temperatura - Umidità - Pioggia orarie dal 27-05-2020 al 04-06-2020

Dati orari da stazione meteo dal 27-05-2020 al 04-06-2020

Nome Stazione Data Ora Temperatura [°C] Umidità [%] Pioggia [mm] Pressione[hPa]
Sant'Anna di Vinadio 27-05-2020 03:20 6 104 0 1027.6
Sant'Anna di Vinadio 27-05-2020 03:30 6 104 0 1027.6
Sant'Anna di Vinadio 27-05-2020 03:40 5.9 104 0 1027.5
Sant'Anna di Vinadio 27-05-2020 03:50 5.9 104 0 1027.4
Sant'Anna di Vinadio 27-05-2020 04:00 5.9 104 0 1027.4
Sant'Anna di Vinadio 27-05-2020 04:10 5.8 104 0 1027.3
Sant'Anna di Vinadio 27-05-2020 04:20 5.5 104 0 1027.3
Sant'Anna di Vinadio 27-05-2020 04:30 5.4 104 0 1027.3
Sant'Anna di Vinadio 27-05-2020 04:40 5.3 104 0 1027.4
Sant'Anna di Vinadio 27-05-2020 04:50 5.2 104 0 1027.3
Sant'Anna di Vinadio 27-05-2020 05:00 5 104 0.1 1027.3
Sant'Anna di Vinadio 27-05-2020 05:10 4.8 104 0 1027.4
Sant'Anna di Vinadio 27-05-2020 05:20 4.7 104 0 1027.3
Sant'Anna di Vinadio 27-05-2020 05:30 4.6 104 0 1027.2
Sant'Anna di Vinadio 27-05-2020 05:40 4.7 104 0 1027.2
Sant'Anna di Vinadio 27-05-2020 05:50 4.6 104 0.1 1027.3
Sant'Anna di Vinadio 27-05-2020 06:00 4.6 104 0 1027.3
Sant'Anna di Vinadio 27-05-2020 06:10 4.4 104 0 1027.4
Sant'Anna di Vinadio 27-05-2020 06:20 4.5 104 0 1027.4
Sant'Anna di Vinadio 27-05-2020 06:30 4.5 104 0 1027.4
Sant'Anna di Vinadio 27-05-2020 06:40 4.5 104 0 1027.4
Sant'Anna di Vinadio 27-05-2020 06:50 4.6 104 0 1027.5
Sant'Anna di Vinadio 27-05-2020 07:00 4.6 104 0 1027.5
Sant'Anna di Vinadio 27-05-2020 07:10 4.7 104 0.1 1027.4
Sant'Anna di Vinadio 27-05-2020 07:20 4.8 104 0 1027.4
Sant'Anna di Vinadio 27-05-2020 07:30 4.9 104 0 1027.5
Sant'Anna di Vinadio 27-05-2020 07:40 4.9 104 0 1027.5
Sant'Anna di Vinadio 27-05-2020 07:50 4.9 104 0 1027.5
Sant'Anna di Vinadio 27-05-2020 08:00 4.7 104 0 1027.5
Sant'Anna di Vinadio 27-05-2020 08:10 4.6 104 0 1027.5
Sant'Anna di Vinadio 27-05-2020 08:20 4.5 104 0 1027.5
Sant'Anna di Vinadio 27-05-2020 08:30 4.6 104 0 1027.5
Sant'Anna di Vinadio 27-05-2020 08:40 4.6 104 0 1027.5
Sant'Anna di Vinadio 27-05-2020 08:50 4.5 104 0 1027.6
Sant'Anna di Vinadio 27-05-2020 09:00 4.5 104 0 1027.7
Sant'Anna di Vinadio 27-05-2020 09:10 4.5 104 0 1027.7
Sant'Anna di Vinadio 27-05-2020 09:20 4.6 104 0 1027.7
Sant'Anna di Vinadio 27-05-2020 09:30 4.7 104 0 1027.8
Sant'Anna di Vinadio 27-05-2020 09:40 4.7 104 0 1027.9
Sant'Anna di Vinadio 27-05-2020 09:50 4.7 104 0 1028
Sant'Anna di Vinadio 27-05-2020 10:00 4.7 104 0 1028
Sant'Anna di Vinadio 27-05-2020 10:10 4.8 104 0 1028.1
Sant'Anna di Vinadio 27-05-2020 10:20 5 104 0 1028.1
Sant'Anna di Vinadio 27-05-2020 10:30 5.2 104 0 1028.1
Sant'Anna di Vinadio 27-05-2020 10:40 5.2 104 0 1028.2
Sant'Anna di Vinadio 27-05-2020 10:50 5 104 0 1028.2
Sant'Anna di Vinadio 27-05-2020 11:00 4.9 104 0 1028.3
Sant'Anna di Vinadio 27-05-2020 11:10 5 104 0 1028.3
Sant'Anna di Vinadio 27-05-2020 11:20 5 104 0 1028.3
Sant'Anna di Vinadio 27-05-2020 11:30 5 104 0 1028.3
Sant'Anna di Vinadio 27-05-2020 11:40 5.1 104 0 1028.4
Sant'Anna di Vinadio 27-05-2020 11:50 5 104 0 1028.4
Sant'Anna di Vinadio 27-05-2020 12:00 5.2 104 0 1028.4
Sant'Anna di Vinadio 27-05-2020 12:10 5.2 104 0 1028.5
Sant'Anna di Vinadio 27-05-2020 12:20 5 104 0 1028.5
Sant'Anna di Vinadio 27-05-2020 12:30 5.1 104 0 1028.5
Sant'Anna di Vinadio 27-05-2020 12:40 5 104 0 1028.6
Sant'Anna di Vinadio 27-05-2020 12:50 5.3 104 0 1028.6
Sant'Anna di Vinadio 27-05-2020 13:00 5.3 104 0 1028.6
Sant'Anna di Vinadio 27-05-2020 13:10 5.4 104 0 1028.6
Sant'Anna di Vinadio 27-05-2020 13:20 5.8 104 0 1028.6
Sant'Anna di Vinadio 27-05-2020 13:30 6.6 104 0 1028.5
Sant'Anna di Vinadio 27-05-2020 13:40 6.5 104 0 1028.4
Sant'Anna di Vinadio 27-05-2020 13:50 6.8 104 0 1028.4
Sant'Anna di Vinadio 27-05-2020 14:00 6.8 96 0 1028.4
Sant'Anna di Vinadio 27-05-2020 14:10 7.1 96 0 1028.4
Sant'Anna di Vinadio 27-05-2020 14:20 7 97 0 1028.3
Sant'Anna di Vinadio 27-05-2020 14:30 6.8 97 0 1028.3
Sant'Anna di Vinadio 27-05-2020 14:40 7.1 97 0 1028.3
Sant'Anna di Vinadio 27-05-2020 14:50 7.2 97 0 1028.2
Sant'Anna di Vinadio 27-05-2020 15:00 7.1 89 0 1028.2
Sant'Anna di Vinadio 27-05-2020 15:10 7.3 87 0 1028.2
Sant'Anna di Vinadio 27-05-2020 15:20 7.8 86 0 1028.2
Sant'Anna di Vinadio 27-05-2020 15:30 7.9 82 0 1028.2
Sant'Anna di Vinadio 27-05-2020 15:40 7.9 81 0 1028.2
Sant'Anna di Vinadio 27-05-2020 15:50 7.8 81 0 1028.2
Sant'Anna di Vinadio 27-05-2020 16:00 7.9 79 0 1028.1
Sant'Anna di Vinadio 27-05-2020 16:10 7.7 80 0 1028.1
Sant'Anna di Vinadio 27-05-2020 16:20 8 80 0 1028.1
Sant'Anna di Vinadio 27-05-2020 16:30 8 78 0 1028
Sant'Anna di Vinadio 27-05-2020 16:40 8 78 0 1028
Sant'Anna di Vinadio 27-05-2020 16:50 7.9 78 0 1027.9
Sant'Anna di Vinadio 27-05-2020 17:00 8.1 77 0 1027.9
Sant'Anna di Vinadio 27-05-2020 17:10 8.1 76 0 1027.9
Sant'Anna di Vinadio 27-05-2020 17:20 8.2 76 0 1027.9
Sant'Anna di Vinadio 27-05-2020 17:30 7.9 75 0 1027.9
Sant'Anna di Vinadio 27-05-2020 17:40 7.9 76 0 1027.8
Sant'Anna di Vinadio 27-05-2020 17:50 8 76 0 1027.8
Sant'Anna di Vinadio 27-05-2020 18:00 8.2 75 0 1027.8
Sant'Anna di Vinadio 27-05-2020 18:10 8.3 74 0 1027.8
Sant'Anna di Vinadio 27-05-2020 18:20 8.2 75 0 1027.7
Sant'Anna di Vinadio 27-05-2020 18:30 8.2 76 0 1027.7
Sant'Anna di Vinadio 27-05-2020 18:40 8 77 0 1027.7
Sant'Anna di Vinadio 27-05-2020 18:50 7.9 77 0 1027.6
Sant'Anna di Vinadio 27-05-2020 19:00 7.7 77 0 1027.7
Sant'Anna di Vinadio 27-05-2020 19:10 7.7 79 0 1027.6
Sant'Anna di Vinadio 27-05-2020 19:20 7.6 79 0 1027.6
Sant'Anna di Vinadio 27-05-2020 19:30 7.5 80 0 1027.6
Sant'Anna di Vinadio 27-05-2020 19:40 7.5 81 0 1027.6
Sant'Anna di Vinadio 27-05-2020 19:50 7.2 83 0 1027.7
Sant'Anna di Vinadio 27-05-2020 20:00 7.1 84 0 1027.7
Sant'Anna di Vinadio 27-05-2020 20:10 7 84 0 1027.7
Sant'Anna di Vinadio 27-05-2020 20:20 7.1 85 0 1027.7
Sant'Anna di Vinadio 27-05-2020 20:30 7.1 84 0 1027.7
Sant'Anna di Vinadio 27-05-2020 20:40 7 84 0 1027.6
Sant'Anna di Vinadio 27-05-2020 20:50 6.9 85 0 1027.6
Sant'Anna di Vinadio 27-05-2020 21:00 6.9 86 0 1027.6
Sant'Anna di Vinadio 27-05-2020 21:10 6.8 87 0 1027.6
Sant'Anna di Vinadio 27-05-2020 21:20 6.8 88 0 1027.8
Sant'Anna di Vinadio 27-05-2020 21:30 6.7 89 0 1027.9
Sant'Anna di Vinadio 27-05-2020 21:40 6.6 91 0 1027.9
Sant'Anna di Vinadio 27-05-2020 21:50 6.5 92 0 1027.9
Sant'Anna di Vinadio 27-05-2020 22:00 6.4 93 0 1028
Sant'Anna di Vinadio 27-05-2020 22:10 6.4 94 0 1028.1
Sant'Anna di Vinadio 27-05-2020 22:20 6.4 95 0 1028.1
Sant'Anna di Vinadio 27-05-2020 22:30 6.3 96 0 1028.1
Sant'Anna di Vinadio 27-05-2020 22:40 6.4 95 0 1028.1
Sant'Anna di Vinadio 27-05-2020 22:50 6.4 92 0 1028.1
Sant'Anna di Vinadio 27-05-2020 23:00 6.2 91 0 1028.1
Sant'Anna di Vinadio 27-05-2020 23:10 6.3 91 0 1028.2
Sant'Anna di Vinadio 27-05-2020 23:20 6.4 87 0 1028.1
Sant'Anna di Vinadio 27-05-2020 23:30 6.5 82 0 1028.2
Sant'Anna di Vinadio 27-05-2020 23:40 6.4 76 0 1028.2
Sant'Anna di Vinadio 27-05-2020 23:50 6.6 68 0 1028.2
Sant'Anna di Vinadio 28-05-2020 00:00 6.6 63 0 1028.1
Sant'Anna di Vinadio 28-05-2020 00:10 6.6 56 0 1028.1
Sant'Anna di Vinadio 28-05-2020 00:20 6.7 58 0 1028.1
Sant'Anna di Vinadio 28-05-2020 00:30 6.8 52 0 1028
Sant'Anna di Vinadio 28-05-2020 00:40 7 53 0 1028
Sant'Anna di Vinadio 28-05-2020 00:50 7 48 0 1027.9
Sant'Anna di Vinadio 28-05-2020 01:00 6.9 47 0 1027.9
Sant'Anna di Vinadio 28-05-2020 01:10 7 49 0 1027.9
Sant'Anna di Vinadio 28-05-2020 01:20 7.1 42 0 1027.8
Sant'Anna di Vinadio 28-05-2020 01:30 7.2 39 0 1027.8
Sant'Anna di Vinadio 28-05-2020 01:40 7.3 35 0 1027.8
Sant'Anna di Vinadio 28-05-2020 01:50 7.3 35 0 1027.7
Sant'Anna di Vinadio 28-05-2020 02:00 7.4 34 0 1027.7
Sant'Anna di Vinadio 28-05-2020 02:10 7.4 29 0 1027.7
Sant'Anna di Vinadio 28-05-2020 02:20 7.4 26 0 1027.6
Sant'Anna di Vinadio 28-05-2020 02:30 7.5 23 0 1027.6
Sant'Anna di Vinadio 28-05-2020 02:40 7.7 22 0 1027.5
Sant'Anna di Vinadio 28-05-2020 02:50 7.7 20 0 1027.5
Sant'Anna di Vinadio 28-05-2020 03:00 7.8 20 0 1027.4
Sant'Anna di Vinadio 28-05-2020 03:10 7.9 19 0 1027.3
Sant'Anna di Vinadio 28-05-2020 03:20 7.8 20 0 1027.3
Sant'Anna di Vinadio 28-05-2020 03:30 7.7 20 0 1027.2
Sant'Anna di Vinadio 28-05-2020 03:40 7.7 22 0 1027.1
Sant'Anna di Vinadio 28-05-2020 03:50 7.7 23 0 1027
Sant'Anna di Vinadio 28-05-2020 04:00 7.8 24 0 1026.9
Sant'Anna di Vinadio 28-05-2020 04:10 8 24 0 1026.9
Sant'Anna di Vinadio 28-05-2020 04:20 8 24 0 1026.8
Sant'Anna di Vinadio 28-05-2020 04:30 8 19 0 1026.8
Sant'Anna di Vinadio 28-05-2020 04:40 8.1 19 0 1026.8
Sant'Anna di Vinadio 28-05-2020 04:50 8.1 19 0 1026.7
Sant'Anna di Vinadio 28-05-2020 05:00 8 21 0 1026.7
Sant'Anna di Vinadio 28-05-2020 05:10 8 24 0 1026.6
Sant'Anna di Vinadio 28-05-2020 05:20 7.9 23 0 1026.5
Sant'Anna di Vinadio 28-05-2020 05:30 8 23 0 1026.4
Sant'Anna di Vinadio 28-05-2020 05:40 8.3 22 0 1026.4
Sant'Anna di Vinadio 28-05-2020 05:50 8.4 21 0 1026.4
Sant'Anna di Vinadio 28-05-2020 06:00 8.2 22 0 1026.4
Sant'Anna di Vinadio 28-05-2020 06:10 8.1 23 0 1026.3
Sant'Anna di Vinadio 28-05-2020 06:20 8.1 23 0 1026.2
Sant'Anna di Vinadio 28-05-2020 06:30 8.1 23 0 1026.2
Sant'Anna di Vinadio 28-05-2020 06:40 8.3 22 0 1026.2
Sant'Anna di Vinadio 28-05-2020 06:50 8.4 22 0 1026.1
Sant'Anna di Vinadio 28-05-2020 07:00 8.5 22 0 1026.1
Sant'Anna di Vinadio 28-05-2020 07:10 8.4 23 0 1026.1
Sant'Anna di Vinadio 28-05-2020 07:20 9.4 24 0 1026.1
Sant'Anna di Vinadio 28-05-2020 07:30 9.8 22 0 1026.2
Sant'Anna di Vinadio 28-05-2020 07:40 10.1 22 0 1026.1
Sant'Anna di Vinadio 28-05-2020 07:50 10.2 22 0 1026
Sant'Anna di Vinadio 28-05-2020 08:00 10.3 22 0 1025.9
Sant'Anna di Vinadio 28-05-2020 08:10 10.5 21 0 1025.8
Sant'Anna di Vinadio 28-05-2020 08:20 10.8 21 0 1025.8
Sant'Anna di Vinadio 28-05-2020 08:30 10.9 22 0 1025.7
Sant'Anna di Vinadio 28-05-2020 08:40 10.6 19 0 1025.6
Sant'Anna di Vinadio 28-05-2020 08:50 10.6 19 0 1025.6
Sant'Anna di Vinadio 28-05-2020 09:00 11 21 0 1025.5
Sant'Anna di Vinadio 28-05-2020 09:10 11.4 20 0 1025.5
Sant'Anna di Vinadio 28-05-2020 09:20 11.6 19 0 1025.4
Sant'Anna di Vinadio 28-05-2020 09:30 11.1 18 0 1025.3
Sant'Anna di Vinadio 28-05-2020 09:40 11.1 18 0 1025.3
Sant'Anna di Vinadio 28-05-2020 09:50 11 19 0 1025.3
Sant'Anna di Vinadio 28-05-2020 10:00 11.3 20 0 1025.2
Sant'Anna di Vinadio 28-05-2020 10:10 11.5 22 0 1025.1
Sant'Anna di Vinadio 28-05-2020 10:20 11.6 22 0 1025.1
Sant'Anna di Vinadio 28-05-2020 10:30 11.5 24 0 1025.1
Sant'Anna di Vinadio 28-05-2020 10:40 11.5 26 0 1024.9
Sant'Anna di Vinadio 28-05-2020 10:50 12 28 0 1024.9
Sant'Anna di Vinadio 28-05-2020 11:00 12.3 32 0 1024.8
Sant'Anna di Vinadio 28-05-2020 11:10 12.5 34 0 1024.8
Sant'Anna di Vinadio 28-05-2020 11:20 12.1 50 0 1024.8
Sant'Anna di Vinadio 28-05-2020 11:30 11.4 53 0 1024.8
Sant'Anna di Vinadio 28-05-2020 11:40 10.9 52 0 1024.8
Sant'Anna di Vinadio 28-05-2020 11:50 10.7 51 0 1024.7
Sant'Anna di Vinadio 28-05-2020 12:00 11.2 52 0 1024.6
Sant'Anna di Vinadio 28-05-2020 12:10 11.4 54 0 1024.6
Sant'Anna di Vinadio 28-05-2020 12:20 11.5 55 0 1024.6
Sant'Anna di Vinadio 28-05-2020 12:30 11.4 57 0 1024.6
Sant'Anna di Vinadio 28-05-2020 12:40 11.1 59 0 1024.5
Sant'Anna di Vinadio 28-05-2020 12:50 11.9 59 0 1024.4
Sant'Anna di Vinadio 28-05-2020 13:00 12.3 51 0 1024.3
Sant'Anna di Vinadio 28-05-2020 13:10 13.1 50 0 1024.2
Sant'Anna di Vinadio 28-05-2020 13:20 13.2 48 0 1024.2
Sant'Anna di Vinadio 28-05-2020 13:30 13.1 48 0 1024.1
Sant'Anna di Vinadio 28-05-2020 13:40 13.7 49 0 1024.1
Sant'Anna di Vinadio 28-05-2020 13:50 13.6 50 0 1024
Sant'Anna di Vinadio 28-05-2020 14:00 13.7 50 0 1023.9
Sant'Anna di Vinadio 28-05-2020 14:10 13.9 49 0 1023.8
Sant'Anna di Vinadio 28-05-2020 14:20 13.6 53 0 1023.8
Sant'Anna di Vinadio 28-05-2020 14:30 13.1 57 0 1023.8
Sant'Anna di Vinadio 28-05-2020 14:40 12.6 59 0 1023.7
Sant'Anna di Vinadio 28-05-2020 14:50 11.9 62 0 1023.7
Sant'Anna di Vinadio 28-05-2020 15:00 11.1 66 0 1023.7
Sant'Anna di Vinadio 28-05-2020 15:10 10.8 68 0 1023.7
Sant'Anna di Vinadio 28-05-2020 15:20 10.8 71 0 1023.6
Sant'Anna di Vinadio 28-05-2020 15:30 10.3 72 0 1023.5
Sant'Anna di Vinadio 28-05-2020 15:40 9.9 73 0 1023.5
Sant'Anna di Vinadio 28-05-2020 15:50 9.7 75 0 1023.6
Sant'Anna di Vinadio 28-05-2020 16:00 9.6 76 0 1023.6
Sant'Anna di Vinadio 28-05-2020 16:10 9.5 77 0 1023.5
Sant'Anna di Vinadio 28-05-2020 16:20 8.9 82 0 1023.5
Sant'Anna di Vinadio 28-05-2020 16:30 8.7 89 0.2 1023.5
Sant'Anna di Vinadio 28-05-2020 16:40 8.6 91 0.4 1023.5
Sant'Anna di Vinadio 28-05-2020 16:50 8.5 92 0 1023.2
Sant'Anna di Vinadio 28-05-2020 17:00 8.4 92 0.1 1023.2
Sant'Anna di Vinadio 28-05-2020 17:10 8.6 90 0 1023.2
Sant'Anna di Vinadio 28-05-2020 17:20 8.6 90 0.1 1023.2
Sant'Anna di Vinadio 28-05-2020 17:30 8.5 89 0.2 1023.3
Sant'Anna di Vinadio 28-05-2020 17:40 8.3 94 0.6 1023.4
Sant'Anna di Vinadio 28-05-2020 17:50 8.3 95 0.5 1023.2
Sant'Anna di Vinadio 28-05-2020 18:00 7.9 97 0.2 1023.1
Sant'Anna di Vinadio 28-05-2020 18:10 7.9 97 0.3 1023.3
Sant'Anna di Vinadio 28-05-2020 18:20 7.9 99 0.3 1023.2
Sant'Anna di Vinadio 28-05-2020 18:30 8 99 0.1 1023.1
Sant'Anna di Vinadio 28-05-2020 18:40 8.1 99 0 1023
Sant'Anna di Vinadio 28-05-2020 18:50 8.1 98 0.1 1023
Sant'Anna di Vinadio 28-05-2020 19:00 8.2 95 0 1023
Sant'Anna di Vinadio 28-05-2020 19:10 8.3 92 0 1023
Sant'Anna di Vinadio 28-05-2020 19:20 8.3 89 0 1023
Sant'Anna di Vinadio 28-05-2020 19:30 8.3 91 0 1023.1
Sant'Anna di Vinadio 28-05-2020 19:40 8.3 90 0 1023.1
Sant'Anna di Vinadio 28-05-2020 19:50 8.2 90 0 1023
Sant'Anna di Vinadio 28-05-2020 20:00 8.3 90 0 1023
Sant'Anna di Vinadio 28-05-2020 20:10 8.2 92 0 1022.9
Sant'Anna di Vinadio 28-05-2020 20:20 8.1 95 0 1022.9
Sant'Anna di Vinadio 28-05-2020 20:30 8.1 97 0.2 1023
Sant'Anna di Vinadio 28-05-2020 20:40 8 104 1.1 1023
Sant'Anna di Vinadio 28-05-2020 20:50 7.7 104 0.5 1022.9
Sant'Anna di Vinadio 28-05-2020 21:00 7.6 104 0.1 1022.9
Sant'Anna di Vinadio 28-05-2020 21:10 7.7 104 0 1022.9
Sant'Anna di Vinadio 28-05-2020 21:20 7.7 104 0.1 1022.8
Sant'Anna di Vinadio 28-05-2020 21:30 7.5 104 0 1022.8
Sant'Anna di Vinadio 28-05-2020 21:40 7.5 104 0 1022.8
Sant'Anna di Vinadio 28-05-2020 21:50 7.5 104 0 1022.8
Sant'Anna di Vinadio 28-05-2020 22:00 7.5 104 0 1022.8
Sant'Anna di Vinadio 28-05-2020 22:10 7.4 104 0 1022.8
Sant'Anna di Vinadio 28-05-2020 22:20 7.5 104 0 1022.8
Sant'Anna di Vinadio 28-05-2020 22:30 7.6 104 0 1022.8
Sant'Anna di Vinadio 28-05-2020 22:40 7.6 104 0 1022.8
Sant'Anna di Vinadio 28-05-2020 22:50 7.5 104 0.1 1022.8
Sant'Anna di Vinadio 28-05-2020 23:00 7.5 104 0 1022.7
Sant'Anna di Vinadio 28-05-2020 23:10 7.5 104 0 1022.6
Sant'Anna di Vinadio 28-05-2020 23:20 7.6 104 0 1022.6
Sant'Anna di Vinadio 28-05-2020 23:30 7.7 104 0 1022.4
Sant'Anna di Vinadio 28-05-2020 23:40 7.6 98 0 1022.3
Sant'Anna di Vinadio 28-05-2020 23:50 7.7 96 0 1022.3
Sant'Anna di Vinadio 29-05-2020 00:00 7.7 90 0 1022.2
Sant'Anna di Vinadio 29-05-2020 00:10 7.8 88 0 1022.2
Sant'Anna di Vinadio 29-05-2020 00:20 7.8 82 0 1022.1
Sant'Anna di Vinadio 29-05-2020 00:30 7.7 79 0 1022.1
Sant'Anna di Vinadio 29-05-2020 00:40 7.9 78 0 1022
Sant'Anna di Vinadio 29-05-2020 00:50 7.8 77 0 1022
Sant'Anna di Vinadio 29-05-2020 01:00 7.8 77 0 1021.9
Sant'Anna di Vinadio 29-05-2020 01:10 7.9 77 0 1021.8
Sant'Anna di Vinadio 29-05-2020 01:20 7.9 76 0 1021.7
Sant'Anna di Vinadio 29-05-2020 01:30 7.6 77 0 1021.7
Sant'Anna di Vinadio 29-05-2020 01:40 7.6 76 0 1021.6
Sant'Anna di Vinadio 29-05-2020 01:50 7.9 76 0 1021.5
Sant'Anna di Vinadio 29-05-2020 02:00 7.9 72 0 1021.4
Sant'Anna di Vinadio 29-05-2020 02:10 7.7 75 0 1021.4
Sant'Anna di Vinadio 29-05-2020 02:20 7.5 75 0 1021.3
Sant'Anna di Vinadio 29-05-2020 02:30 7.5 76 0 1021.2
Sant'Anna di Vinadio 29-05-2020 02:40 7.3 77 0 1021.1
Sant'Anna di Vinadio 29-05-2020 02:50 7.1 78 0 1021
Sant'Anna di Vinadio 29-05-2020 03:00 7.2 79 0 1020.9
Sant'Anna di Vinadio 29-05-2020 03:10 7.1 77 0 1020.8
Sant'Anna di Vinadio 29-05-2020 03:20 7.2 76 0 1020.7
Sant'Anna di Vinadio 29-05-2020 03:30 7.1 78 0 1020.6
Sant'Anna di Vinadio 29-05-2020 03:40 6.9 79 0 1020.6
Sant'Anna di Vinadio 29-05-2020 03:50 7 79 0 1020.5
Sant'Anna di Vinadio 29-05-2020 04:00 6.9 81 0 1020.4
Sant'Anna di Vinadio 29-05-2020 04:10 6.8 83 0 1020.4
Sant'Anna di Vinadio 29-05-2020 04:20 6.9 83 0 1020.4
Sant'Anna di Vinadio 29-05-2020 04:30 6.9 83 0 1020.3
Sant'Anna di Vinadio 29-05-2020 04:40 6.7 86 0 1020.2
Sant'Anna di Vinadio 29-05-2020 04:50 6.7 89 0 1020.1
Sant'Anna di Vinadio 29-05-2020 05:00 6.7 92 0 1020
Sant'Anna di Vinadio 29-05-2020 05:10 6.7 96 0 1020
Sant'Anna di Vinadio 29-05-2020 05:20 6.6 99 0 1020
Sant'Anna di Vinadio 29-05-2020 05:30 6.7 99 0 1020
Sant'Anna di Vinadio 29-05-2020 05:40 6.7 99 0 1020
Sant'Anna di Vinadio 29-05-2020 05:50 6.7 98 0 1020
Sant'Anna di Vinadio 29-05-2020 06:00 6.6 99 0 1020
Sant'Anna di Vinadio 29-05-2020 06:10 6.5 104 0 1020
Sant'Anna di Vinadio 29-05-2020 06:20 6.6 104 0 1019.9
Sant'Anna di Vinadio 29-05-2020 06:30 6.5 104 0 1019.8
Sant'Anna di Vinadio 29-05-2020 06:40 6.5 104 0 1019.9
Sant'Anna di Vinadio 29-05-2020 06:50 6.6 95 0 1019.9
Sant'Anna di Vinadio 29-05-2020 07:00 6.5 87 0 1019.9
Sant'Anna di Vinadio 29-05-2020 07:10 6.5 87 0 1019.9
Sant'Anna di Vinadio 29-05-2020 07:20 6.1 104 0 1019.9
Sant'Anna di Vinadio 29-05-2020 07:30 5.6 104 0 1019.9
Sant'Anna di Vinadio 29-05-2020 07:40 5.1 104 0 1020.1
Sant'Anna di Vinadio 29-05-2020 07:50 4.6 104 0 1020.2
Sant'Anna di Vinadio 29-05-2020 08:00 3.7 104 0 1020.4
Sant'Anna di Vinadio 29-05-2020 08:10 3.6 104 0 1020.5
Sant'Anna di Vinadio 29-05-2020 08:20 3.5 104 0 1020.4
Sant'Anna di Vinadio 29-05-2020 08:30 3.5 104 0 1020.4
Sant'Anna di Vinadio 29-05-2020 08:40 3.6 104 0 1020.4
Sant'Anna di Vinadio 29-05-2020 08:50 3.6 104 0 1020.5
Sant'Anna di Vinadio 29-05-2020 09:00 3.5 104 0 1020.6
Sant'Anna di Vinadio 29-05-2020 09:10 3.4 104 0 1020.6
Sant'Anna di Vinadio 29-05-2020 09:20 3.4 104 0 1020.6
Sant'Anna di Vinadio 29-05-2020 09:30 3.4 104 0 1020.6
Sant'Anna di Vinadio 29-05-2020 09:40 3.4 104 0 1020.5
Sant'Anna di Vinadio 29-05-2020 09:50 3.6 104 0 1020.5
Sant'Anna di Vinadio 29-05-2020 10:00 3.8 104 0 1020.4
Sant'Anna di Vinadio 29-05-2020 10:10 4.1 104 0 1020.3
Sant'Anna di Vinadio 29-05-2020 10:20 4 104 0 1020.3
Sant'Anna di Vinadio 29-05-2020 10:30 4 104 0 1020.4
Sant'Anna di Vinadio 29-05-2020 10:40 3.9 104 0 1020.5
Sant'Anna di Vinadio 29-05-2020 10:50 3.7 104 0 1020.5
Sant'Anna di Vinadio 29-05-2020 11:00 3.7 104 0 1020.5
Sant'Anna di Vinadio 29-05-2020 11:10 3.8 104 0 1020.5
Sant'Anna di Vinadio 29-05-2020 11:20 3.9 104 0 1020.5
Sant'Anna di Vinadio 29-05-2020 11:30 4.2 104 0 1020.4
Sant'Anna di Vinadio 29-05-2020 11:40 4.1 104 0 1020.5
Sant'Anna di Vinadio 29-05-2020 11:50 4.7 104 0 1020.5
Sant'Anna di Vinadio 29-05-2020 12:00 4.7 104 0 1020.5
Sant'Anna di Vinadio 29-05-2020 12:10 3.8 104 0 1020.5
Sant'Anna di Vinadio 29-05-2020 12:20 3.7 104 0 1020.5
Sant'Anna di Vinadio 29-05-2020 12:30 3.8 104 0 1020.4
Sant'Anna di Vinadio 29-05-2020 12:40 3.9 104 0 1020.4
Sant'Anna di Vinadio 29-05-2020 12:50 3.8 104 0 1020.3
Sant'Anna di Vinadio 29-05-2020 13:00 3.7 104 0 1020.2
Sant'Anna di Vinadio 29-05-2020 13:10 3.2 104 0 1020.1
Sant'Anna di Vinadio 29-05-2020 13:20 3.1 104 0 1020.1
Sant'Anna di Vinadio 29-05-2020 13:30 3.1 104 0 1020.1
Sant'Anna di Vinadio 29-05-2020 13:40 3.1 104 0 1020.1
Sant'Anna di Vinadio 29-05-2020 13:50 3.1 104 0 1020.1
Sant'Anna di Vinadio 29-05-2020 14:00 3.1 104 0 1020
Sant'Anna di Vinadio 29-05-2020 14:10 3.1 104 0 1020
Sant'Anna di Vinadio 29-05-2020 14:20 3.1 104 0.1 1020
Sant'Anna di Vinadio 29-05-2020 14:30 3.1 104 0 1019.9
Sant'Anna di Vinadio 29-05-2020 14:40 3.1 104 0 1019.9
Sant'Anna di Vinadio 29-05-2020 14:50 3 104 0 1019.9
Sant'Anna di Vinadio 29-05-2020 15:00 2.8 104 0.2 1019.9
Sant'Anna di Vinadio 29-05-2020 15:10 2.7 104 0 1019.9
Sant'Anna di Vinadio 29-05-2020 15:20 2.5 104 0.1 1019.9
Sant'Anna di Vinadio 29-05-2020 15:30 2.5 104 0 1019.9
Sant'Anna di Vinadio 29-05-2020 15:40 2.3 104 0.1 1019.9
Sant'Anna di Vinadio 29-05-2020 15:50 2.4 104 0 1019.8
Sant'Anna di Vinadio 29-05-2020 16:00 2.4 104 0 1019.8
Sant'Anna di Vinadio 29-05-2020 16:10 2.4 104 0 1019.8
Sant'Anna di Vinadio 29-05-2020 16:20 2.2 104 0 1019.8
Sant'Anna di Vinadio 29-05-2020 16:30 2 104 0.1 1019.8
Sant'Anna di Vinadio 29-05-2020 16:40 2 104 0 1019.9
Sant'Anna di Vinadio 29-05-2020 16:50 1.9 104 0 1020
Sant'Anna di Vinadio 29-05-2020 17:00 2 104 0 1020
Sant'Anna di Vinadio 29-05-2020 17:10 2.1 104 0 1020
Sant'Anna di Vinadio 29-05-2020 17:20 2.2 104 0 1019.9
Sant'Anna di Vinadio 29-05-2020 17:30 2.2 104 0 1019.8
Sant'Anna di Vinadio 29-05-2020 17:40 2.3 104 0 1019.9
Sant'Anna di Vinadio 29-05-2020 17:50 2.3 104 0 1019.8
Sant'Anna di Vinadio 29-05-2020 18:00 2.1 104 0 1019.7
Sant'Anna di Vinadio 29-05-2020 18:10 2 104 0 1019.7
Sant'Anna di Vinadio 29-05-2020 18:20 2.2 104 0 1019.8
Sant'Anna di Vinadio 29-05-2020 18:30 2.2 104 0 1019.8
Sant'Anna di Vinadio 29-05-2020 18:40 2.3 104 0 1019.7
Sant'Anna di Vinadio 29-05-2020 18:50 2.6 104 0 1019.7
Sant'Anna di Vinadio 29-05-2020 19:00 2.6 104 0 1019.7
Sant'Anna di Vinadio 29-05-2020 19:10 2.4 104 0 1019.7
Sant'Anna di Vinadio 29-05-2020 19:20 2.3 104 0 1019.7
Sant'Anna di Vinadio 29-05-2020 19:30 2.2 104 0 1019.7
Sant'Anna di Vinadio 29-05-2020 19:40 2.5 104 0 1019.7
Sant'Anna di Vinadio 29-05-2020 19:50 2.3 104 0 1019.6
Sant'Anna di Vinadio 29-05-2020 20:00 2.3 104 0 1019.6
Sant'Anna di Vinadio 29-05-2020 20:10 2.2 104 0 1019.5
Sant'Anna di Vinadio 29-05-2020 20:20 2.8 104 0 1019.5
Sant'Anna di Vinadio 29-05-2020 20:30 2.6 104 0 1019.5
Sant'Anna di Vinadio 29-05-2020 20:40 2.5 104 0 1019.6
Sant'Anna di Vinadio 29-05-2020 20:50 2.7 104 0 1019.6
Sant'Anna di Vinadio 29-05-2020 21:00 2.8 104 0 1019.6
Sant'Anna di Vinadio 29-05-2020 21:10 2.9 104 0 1019.6
Sant'Anna di Vinadio 29-05-2020 21:20 2.9 104 0 1019.6
Sant'Anna di Vinadio 29-05-2020 21:30 2.8 104 0 1019.6
Sant'Anna di Vinadio 29-05-2020 21:40 2.8 98 0 1019.6
Sant'Anna di Vinadio 29-05-2020 21:50 2.8 99 0 1019.7
Sant'Anna di Vinadio 29-05-2020 22:00 2.7 100 0 1019.8
Sant'Anna di Vinadio 29-05-2020 22:10 2.8 99 0 1019.8
Sant'Anna di Vinadio 29-05-2020 22:20 3.3 99 0 1019.8
Sant'Anna di Vinadio 29-05-2020 22:30 3.5 97 0 1019.9
Sant'Anna di Vinadio 29-05-2020 22:40 3.6 96 0 1019.9
Sant'Anna di Vinadio 29-05-2020 22:50 3.6 85 0 1019.9
Sant'Anna di Vinadio 29-05-2020 23:00 3.6 68 0 1019.9
Sant'Anna di Vinadio 29-05-2020 23:10 3.6 56 0 1019.9
Sant'Anna di Vinadio 29-05-2020 23:20 3.6 52 0 1019.9
Sant'Anna di Vinadio 29-05-2020 23:30 3.6 51 0 1019.9
Sant'Anna di Vinadio 29-05-2020 23:40 3.7 50 0 1019.9
Sant'Anna di Vinadio 29-05-2020 23:50 3.7 50 0 1019.9
Sant'Anna di Vinadio 30-05-2020 00:00 3.8 49 0 1019.9
Sant'Anna di Vinadio 30-05-2020 00:10 3.8 48 0 1019.8
Sant'Anna di Vinadio 30-05-2020 00:20 3.8 47 0 1019.8
Sant'Anna di Vinadio 30-05-2020 00:30 3.8 46 0 1019.8
Sant'Anna di Vinadio 30-05-2020 00:40 3.8 46 0 1019.8
Sant'Anna di Vinadio 30-05-2020 00:50 4 44 0 1019.7
Sant'Anna di Vinadio 30-05-2020 01:00 4.1 41 0 1019.6
Sant'Anna di Vinadio 30-05-2020 01:10 4.1 40 0 1019.5
Sant'Anna di Vinadio 30-05-2020 01:20 4.2 40 0 1019.6
Sant'Anna di Vinadio 30-05-2020 01:30 4.2 41 0 1019.5
Sant'Anna di Vinadio 30-05-2020 01:40 4.1 41 0 1019.5
Sant'Anna di Vinadio 30-05-2020 01:50 4 42 0 1019.5
Sant'Anna di Vinadio 30-05-2020 02:00 4 43 0 1019.5
Sant'Anna di Vinadio 30-05-2020 02:10 3.9 43 0 1019.4
Sant'Anna di Vinadio 30-05-2020 02:20 3.9 44 0 1019.4
Sant'Anna di Vinadio 30-05-2020 02:30 3.8 45 0 1019.3
Sant'Anna di Vinadio 30-05-2020 02:40 3.7 47 0 1019.3
Sant'Anna di Vinadio 30-05-2020 02:50 3.4 50 0 1019.2
Sant'Anna di Vinadio 30-05-2020 03:00 3.2 53 0 1019.2
Sant'Anna di Vinadio 30-05-2020 03:10 2.9 56 0 1019.2
Sant'Anna di Vinadio 30-05-2020 03:20 2.8 56 0 1019.1
Sant'Anna di Vinadio 30-05-2020 03:30 2.8 57 0 1019
Sant'Anna di Vinadio 30-05-2020 03:40 2.7 57 0 1019
Sant'Anna di Vinadio 30-05-2020 03:50 2.6 58 0 1019
Sant'Anna di Vinadio 30-05-2020 04:00 2.5 59 0 1019
Sant'Anna di Vinadio 30-05-2020 04:10 2.5 60 0 1018.9
Sant'Anna di Vinadio 30-05-2020 04:20 2.5 60 0 1018.8
Sant'Anna di Vinadio 30-05-2020 04:30 2.6 60 0 1018.8
Sant'Anna di Vinadio 30-05-2020 04:40 2.5 60 0 1018.7
Sant'Anna di Vinadio 30-05-2020 04:50 2.6 58 0 1018.7
Sant'Anna di Vinadio 30-05-2020 05:00 2.7 58 0 1018.6
Sant'Anna di Vinadio 30-05-2020 05:10 2.8 58 0 1018.6
Sant'Anna di Vinadio 30-05-2020 05:20 2.8 54 0 1018.5
Sant'Anna di Vinadio 30-05-2020 05:30 2.7 54 0 1018.4
Sant'Anna di Vinadio 30-05-2020 05:40 2.6 55 0 1018.3
Sant'Anna di Vinadio 30-05-2020 05:50 2.7 56 0 1018.2
Sant'Anna di Vinadio 30-05-2020 06:00 2.7 56 0 1018.2
Sant'Anna di Vinadio 30-05-2020 06:10 2.6 56 0 1018.2
Sant'Anna di Vinadio 30-05-2020 06:20 2.6 56 0 1018.1
Sant'Anna di Vinadio 30-05-2020 06:30 2.6 54 0 1018
Sant'Anna di Vinadio 30-05-2020 06:40 2.6 54 0 1018
Sant'Anna di Vinadio 30-05-2020 06:50 2.7 52 0 1018.1
Sant'Anna di Vinadio 30-05-2020 07:00 3.1 50 0 1018.1
Sant'Anna di Vinadio 30-05-2020 07:10 3.1 49 0 1018.1
Sant'Anna di Vinadio 30-05-2020 07:20 3.8 50 0 1018.1
Sant'Anna di Vinadio 30-05-2020 07:30 5.1 48 0 1018.1
Sant'Anna di Vinadio 30-05-2020 07:40 5.5 49 0 1018.1
Sant'Anna di Vinadio 30-05-2020 07:50 5.5 47 0 1018.1
Sant'Anna di Vinadio 30-05-2020 08:00 5.5 48 0 1018.1
Sant'Anna di Vinadio 30-05-2020 08:10 5.4 47 0 1018.1
Sant'Anna di Vinadio 30-05-2020 08:20 5.7 47 0 1018
Sant'Anna di Vinadio 30-05-2020 08:30 5.8 47 0 1017.9
Sant'Anna di Vinadio 30-05-2020 08:40 6.1 46 0 1017.9
Sant'Anna di Vinadio 30-05-2020 08:50 6.4 44 0 1017.9
Sant'Anna di Vinadio 30-05-2020 09:00 6.7 40 0 1017.9
Sant'Anna di Vinadio 30-05-2020 09:10 6.7 42 0 1017.9
Sant'Anna di Vinadio 30-05-2020 09:20 6.7 42 0 1017.8
Sant'Anna di Vinadio 30-05-2020 09:30 6.6 40 0 1017.8
Sant'Anna di Vinadio 30-05-2020 09:40 6.6 42 0 1017.7
Sant'Anna di Vinadio 30-05-2020 09:50 6.7 44 0 1017.7
Sant'Anna di Vinadio 30-05-2020 10:00 6.5 44 0 1017.7
Sant'Anna di Vinadio 30-05-2020 10:10 6.6 43 0 1017.7
Sant'Anna di Vinadio 30-05-2020 10:20 7 43 0 1017.6
Sant'Anna di Vinadio 30-05-2020 10:30 7.2 40 0 1017.6
Sant'Anna di Vinadio 30-05-2020 10:40 7.4 41 0 1017.6
Sant'Anna di Vinadio 30-05-2020 10:50 7.6 42 0 1017.6
Sant'Anna di Vinadio 30-05-2020 11:00 7.6 42 0 1017.6
Sant'Anna di Vinadio 30-05-2020 11:10 7.6 42 0 1017.6
Sant'Anna di Vinadio 30-05-2020 11:20 7.8 43 0 1017.6
Sant'Anna di Vinadio 30-05-2020 11:30 7.8 46 0 1017.6
Sant'Anna di Vinadio 30-05-2020 11:40 7.8 46 0 1017.6
Sant'Anna di Vinadio 30-05-2020 11:50 8.1 46 0 1017.5
Sant'Anna di Vinadio 30-05-2020 12:00 8.5 45 0 1017.5
Sant'Anna di Vinadio 30-05-2020 12:10 8.7 45 0 1017.5
Sant'Anna di Vinadio 30-05-2020 12:20 9 46 0 1017.5
Sant'Anna di Vinadio 30-05-2020 12:30 8.9 45 0 1017.5
Sant'Anna di Vinadio 30-05-2020 12:40 8.9 45 0 1017.4
Sant'Anna di Vinadio 30-05-2020 12:50 9.2 45 0 1017.4
Sant'Anna di Vinadio 30-05-2020 13:00 9 48 0 1017.4
Sant'Anna di Vinadio 30-05-2020 13:10 9 49 0 1017.4
Sant'Anna di Vinadio 30-05-2020 13:20 8.9 47 0 1017.4
Sant'Anna di Vinadio 30-05-2020 13:30 8.3 50 0 1017.4
Sant'Anna di Vinadio 30-05-2020 13:40 8.4 52 0 1017.4
Sant'Anna di Vinadio 30-05-2020 13:50 8.3 52 0 1017.4
Sant'Anna di Vinadio 30-05-2020 14:00 8.2 53 0 1017.3
Sant'Anna di Vinadio 30-05-2020 14:10 7.9 55 0 1017.3
Sant'Anna di Vinadio 30-05-2020 14:20 7.7 55 0 1017.3
Sant'Anna di Vinadio 30-05-2020 14:30 8.3 55 0 1017.3
Sant'Anna di Vinadio 30-05-2020 14:40 8.3 56 0 1017.3
Sant'Anna di Vinadio 30-05-2020 14:50 8.3 56 0 1017.3
Sant'Anna di Vinadio 30-05-2020 15:00 8.3 57 0 1017.2
Sant'Anna di Vinadio 30-05-2020 15:10 7.8 57 0 1017.2
Sant'Anna di Vinadio 30-05-2020 15:20 7.7 59 0 1017.2
Sant'Anna di Vinadio 30-05-2020 15:30 8.1 58 0 1017.2
Sant'Anna di Vinadio 30-05-2020 15:40 8 58 0 1017.1
Sant'Anna di Vinadio 30-05-2020 15:50 7.8 58 0 1017.1
Sant'Anna di Vinadio 30-05-2020 16:00 8 58 0 1017.1
Sant'Anna di Vinadio 30-05-2020 16:10 7.7 57 0 1017
Sant'Anna di Vinadio 30-05-2020 16:20 7 64 0 1017
Sant'Anna di Vinadio 30-05-2020 16:30 6.3 67 0 1017.1
Sant'Anna di Vinadio 30-05-2020 16:40 6 71 0.1 1017.2
Sant'Anna di Vinadio 30-05-2020 16:50 6 72 0 1017.2
Sant'Anna di Vinadio 30-05-2020 17:00 5.8 76 0.1 1017.1
Sant'Anna di Vinadio 30-05-2020 17:10 5.8 76 0 1017.3
Sant'Anna di Vinadio 30-05-2020 17:20 5.7 76 0.1 1017.3
Sant'Anna di Vinadio 30-05-2020 17:30 5.3 77 0.1 1017.3
Sant'Anna di Vinadio 30-05-2020 17:40 5 72 0.6 1017.4
Sant'Anna di Vinadio 30-05-2020 17:50 4.6 74 0.2 1017.4
Sant'Anna di Vinadio 30-05-2020 18:00 4.9 72 0.2 1017.3
Sant'Anna di Vinadio 30-05-2020 18:10 4.8 73 0 1017.1
Sant'Anna di Vinadio 30-05-2020 18:20 4.8 73 0.1 1017.3
Sant'Anna di Vinadio 30-05-2020 18:30 4.8 74 0.4 1017.3
Sant'Anna di Vinadio 30-05-2020 18:40 4.6 77 0.7 1017.3
Sant'Anna di Vinadio 30-05-2020 18:50 4.4 77 0.5 1017.3
Sant'Anna di Vinadio 30-05-2020 19:00 4.5 72 0.3 1017.1
Sant'Anna di Vinadio 30-05-2020 19:10 4.4 73 0.2 1017.2
Sant'Anna di Vinadio 30-05-2020 19:20 4.7 72 0 1017.1
Sant'Anna di Vinadio 30-05-2020 19:30 4.5 75 0.1 1017.1
Sant'Anna di Vinadio 30-05-2020 19:40 4.5 75 0 1017.1
Sant'Anna di Vinadio 30-05-2020 19:50 4.7 72 0 1017.1
Sant'Anna di Vinadio 30-05-2020 20:00 4.8 69 0 1017.1
Sant'Anna di Vinadio 30-05-2020 20:10 4.9 70 0 1017.1
Sant'Anna di Vinadio 30-05-2020 20:20 5 71 0 1017.1
Sant'Anna di Vinadio 30-05-2020 20:30 5.1 69 0 1017.2
Sant'Anna di Vinadio 30-05-2020 20:40 5.1 66 0 1017.2
Sant'Anna di Vinadio 30-05-2020 20:50 4.8 66 0 1017.3
Sant'Anna di Vinadio 30-05-2020 21:00 4.8 71 0 1017.4
Sant'Anna di Vinadio 30-05-2020 21:10 5 68 0.1 1017.5
Sant'Anna di Vinadio 30-05-2020 21:20 4.9 65 0 1017.5
Sant'Anna di Vinadio 30-05-2020 21:30 4.8 65 0 1017.6
Sant'Anna di Vinadio 30-05-2020 21:40 4.5 66 0.1 1017.7
Sant'Anna di Vinadio 30-05-2020 21:50 4.4 70 0.1 1017.8
Sant'Anna di Vinadio 30-05-2020 22:00 4.3 70 0 1017.8
Sant'Anna di Vinadio 30-05-2020 22:10 4.3 69 0.1 1017.7
Sant'Anna di Vinadio 30-05-2020 22:20 4.2 71 0 1017.8
Sant'Anna di Vinadio 30-05-2020 22:30 4.2 70 0 1017.8
Sant'Anna di Vinadio 30-05-2020 22:40 4.1 72 0 1017.9
Sant'Anna di Vinadio 30-05-2020 22:50 4.1 70 0 1017.9
Sant'Anna di Vinadio 30-05-2020 23:00 4.1 71 0 1017.9
Sant'Anna di Vinadio 30-05-2020 23:10 4.3 70 0.1 1017.9
Sant'Anna di Vinadio 30-05-2020 23:20 4.3 69 0 1017.8
Sant'Anna di Vinadio 30-05-2020 23:30 4.3 68 0 1017.7
Sant'Anna di Vinadio 30-05-2020 23:40 4.2 68 0 1017.7
Sant'Anna di Vinadio 30-05-2020 23:50 4.4 70 0 1017.8
Sant'Anna di Vinadio 31-05-2020 00:00 4.5 70 0 1017.7
Sant'Anna di Vinadio 31-05-2020 00:10 4.8 68 0 1017.8
Sant'Anna di Vinadio 31-05-2020 00:20 5 66 0 1017.8
Sant'Anna di Vinadio 31-05-2020 00:30 5.1 67 0 1017.8
Sant'Anna di Vinadio 31-05-2020 00:40 5.2 66 0 1017.8
Sant'Anna di Vinadio 31-05-2020 00:50 5.3 63 0 1017.7
Sant'Anna di Vinadio 31-05-2020 01:00 5.3 64 0 1017.7
Sant'Anna di Vinadio 31-05-2020 01:10 5.5 61 0 1017.6
Sant'Anna di Vinadio 31-05-2020 01:20 5.5 62 0 1017.6
Sant'Anna di Vinadio 31-05-2020 01:30 5.8 60 0 1017.5
Sant'Anna di Vinadio 31-05-2020 01:40 5.9 56 0 1017.5
Sant'Anna di Vinadio 31-05-2020 01:50 5.8 58 0 1017.5
Sant'Anna di Vinadio 31-05-2020 02:00 5.6 58 0 1017.5
Sant'Anna di Vinadio 31-05-2020 02:10 5.7 57 0 1017.4
Sant'Anna di Vinadio 31-05-2020 02:20 5.8 56 0 1017.4
Sant'Anna di Vinadio 31-05-2020 02:30 5.8 56 0 1017.4
Sant'Anna di Vinadio 31-05-2020 02:40 5.7 57 0 1017.3
Sant'Anna di Vinadio 31-05-2020 02:50 5.5 59 0 1017.3
Sant'Anna di Vinadio 31-05-2020 03:00 5.4 60 0 1017.3
Sant'Anna di Vinadio 31-05-2020 03:10 5.3 61 0 1017.2
Sant'Anna di Vinadio 31-05-2020 03:20 5.3 63 0 1017.1
Sant'Anna di Vinadio 31-05-2020 03:30 4.9 66 0 1017.1
Sant'Anna di Vinadio 31-05-2020 03:40 4.8 68 0 1017.1
Sant'Anna di Vinadio 31-05-2020 03:50 4.8 68 0 1017
Sant'Anna di Vinadio 31-05-2020 04:00 4.8 68 0 1017
Sant'Anna di Vinadio 31-05-2020 04:10 4.9 68 0 1016.9
Sant'Anna di Vinadio 31-05-2020 04:20 4.8 68 0 1016.9
Sant'Anna di Vinadio 31-05-2020 04:30 4.4 69 0 1016.9
Sant'Anna di Vinadio 31-05-2020 04:40 4.2 71 0 1016.9
Sant'Anna di Vinadio 31-05-2020 04:50 4.1 71 0 1016.9
Sant'Anna di Vinadio 31-05-2020 05:00 4 72 0 1016.9
Sant'Anna di Vinadio 31-05-2020 05:10 4.1 72 0 1016.9
Sant'Anna di Vinadio 31-05-2020 05:20 4 72 0 1016.9
Sant'Anna di Vinadio 31-05-2020 05:30 4 73 0 1016.9
Sant'Anna di Vinadio 31-05-2020 05:40 4 73 0 1016.9
Sant'Anna di Vinadio 31-05-2020 05:50 3.9 74 0 1016.9
Sant'Anna di Vinadio 31-05-2020 06:00 3.8 75 0 1016.9
Sant'Anna di Vinadio 31-05-2020 06:10 3.7 76 0 1016.9
Sant'Anna di Vinadio 31-05-2020 06:20 3.6 76 0 1017
Sant'Anna di Vinadio 31-05-2020 06:30 3.6 77 0 1017
Sant'Anna di Vinadio 31-05-2020 06:40 3.5 78 0 1017
Sant'Anna di Vinadio 31-05-2020 06:50 3.3 79 0 1017
Sant'Anna di Vinadio 31-05-2020 07:00 3.4 80 0 1017
Sant'Anna di Vinadio 31-05-2020 07:10 3.4 80 0 1016.9
Sant'Anna di Vinadio 31-05-2020 07:20 3.7 80 0 1016.9
Sant'Anna di Vinadio 31-05-2020 07:30 4.9 80 0 1016.9
Sant'Anna di Vinadio 31-05-2020 07:40 5.1 73 0 1016.9
Sant'Anna di Vinadio 31-05-2020 07:50 5.2 70 0 1016.9
Sant'Anna di Vinadio 31-05-2020 08:00 6.5 69 0 1016.9
Sant'Anna di Vinadio 31-05-2020 08:10 7 67 0 1016.9
Sant'Anna di Vinadio 31-05-2020 08:20 7.4 67 0 1016.8
Sant'Anna di Vinadio 31-05-2020 08:30 7.5 63 0 1017
Sant'Anna di Vinadio 31-05-2020 08:40 7.6 67 0 1017.1
Sant'Anna di Vinadio 31-05-2020 08:50 7.7 67 0 1017.2
Sant'Anna di Vinadio 31-05-2020 09:00 8 69 0 1017.2
Sant'Anna di Vinadio 31-05-2020 09:10 7.1 73 0 1017.1
Sant'Anna di Vinadio 31-05-2020 09:20 7.2 70 0 1017.1
Sant'Anna di Vinadio 31-05-2020 09:30 7.1 64 0 1017.2
Sant'Anna di Vinadio 31-05-2020 09:40 6.8 62 0 1017.3
Sant'Anna di Vinadio 31-05-2020 09:50 6.5 74 0 1017.3
Sant'Anna di Vinadio 31-05-2020 10:00 6.1 78 0 1017.3
Sant'Anna di Vinadio 31-05-2020 10:10 6.6 79 0 1017.2
Sant'Anna di Vinadio 31-05-2020 10:20 6.5 78 0 1017.2
Sant'Anna di Vinadio 31-05-2020 10:30 6.2 79 0 1017.3
Sant'Anna di Vinadio 31-05-2020 10:40 6.2 79 0 1017.3
Sant'Anna di Vinadio 31-05-2020 10:50 6.7 77 0 1017.3
Sant'Anna di Vinadio 31-05-2020 11:00 6.9 75 0 1017.3
Sant'Anna di Vinadio 31-05-2020 11:10 7.4 73 0 1017.3
Sant'Anna di Vinadio 31-05-2020 11:20 7.9 72 0 1017.3
Sant'Anna di Vinadio 31-05-2020 11:30 7.9 71 0 1017.3
Sant'Anna di Vinadio 31-05-2020 11:40 8.3 71 0 1017.3
Sant'Anna di Vinadio 31-05-2020 11:50 8.4 72 0 1017.3
Sant'Anna di Vinadio 31-05-2020 12:00 8.1 72 0 1017.3
Sant'Anna di Vinadio 31-05-2020 12:10 9.3 70 0 1017.3
Sant'Anna di Vinadio 31-05-2020 12:20 9.9 60 0 1017.2
Sant'Anna di Vinadio 31-05-2020 12:30 9.9 58 0 1017.3
Sant'Anna di Vinadio 31-05-2020 12:40 10.4 57 0 1017.3
Sant'Anna di Vinadio 31-05-2020 12:50 10.4 54 0 1017.3
Sant'Anna di Vinadio 31-05-2020 13:00 10.5 62 0 1017.3
Sant'Anna di Vinadio 31-05-2020 13:10 10.6 68 0 1017.3
Sant'Anna di Vinadio 31-05-2020 13:20 9.4 75 0 1017.2
Sant'Anna di Vinadio 31-05-2020 13:30 8.8 76 0 1017.2
Sant'Anna di Vinadio 31-05-2020 13:40 8.2 78 0 1017.3
Sant'Anna di Vinadio 31-05-2020 13:50 8.2 79 0 1017.4
Sant'Anna di Vinadio 31-05-2020 14:00 8.3 80 0 1017.4
Sant'Anna di Vinadio 31-05-2020 14:10 8.5 79 0 1017.3
Sant'Anna di Vinadio 31-05-2020 14:20 10.6 77 0 1017.4
Sant'Anna di Vinadio 31-05-2020 14:30 10.6 71 0 1017.4
Sant'Anna di Vinadio 31-05-2020 14:40 11.2 64 0 1017.3
Sant'Anna di Vinadio 31-05-2020 14:50 11 61 0 1017.3
Sant'Anna di Vinadio 31-05-2020 15:00 10.2 58 0 1017.3
Sant'Anna di Vinadio 31-05-2020 15:10 10.5 59 0 1017.2
Sant'Anna di Vinadio 31-05-2020 15:20 10.5 59 0 1017.4
Sant'Anna di Vinadio 31-05-2020 15:30 10.2 60 0 1017.4
Sant'Anna di Vinadio 31-05-2020 15:40 10.4 58 0 1017.3
Sant'Anna di Vinadio 31-05-2020 15:50 10.5 59 0 1017.3
Sant'Anna di Vinadio 31-05-2020 16:00 10.3 60 0 1017.2
Sant'Anna di Vinadio 31-05-2020 16:10 10.3 60 0 1017.2
Sant'Anna di Vinadio 31-05-2020 16:20 10.4 59 0 1017.2
Sant'Anna di Vinadio 31-05-2020 16:30 10.3 57 0 1017.2
Sant'Anna di Vinadio 31-05-2020 16:40 10.2 60 0 1017.3
Sant'Anna di Vinadio 31-05-2020 16:50 10.6 60 0 1017.2
Sant'Anna di Vinadio 31-05-2020 17:00 11.1 63 0 1017.3
Sant'Anna di Vinadio 31-05-2020 17:10 10.4 65 0 1017.4
Sant'Anna di Vinadio 31-05-2020 17:20 10.4 64 0 1017.3
Sant'Anna di Vinadio 31-05-2020 17:30 10.6 63 0 1017.3
Sant'Anna di Vinadio 31-05-2020 17:40 10.7 65 0 1017.3
Sant'Anna di Vinadio 31-05-2020 17:50 10.1 65 0 1017.3
Sant'Anna di Vinadio 31-05-2020 18:00 10 77 0 1017.3
Sant'Anna di Vinadio 31-05-2020 18:10 9.3 78 0 1017.2
Sant'Anna di Vinadio 31-05-2020 18:20 8.3 84 0 1017.3
Sant'Anna di Vinadio 31-05-2020 18:30 7.7 90 0 1017.3
Sant'Anna di Vinadio 31-05-2020 18:40 7.5 96 0 1017.2
Sant'Anna di Vinadio 31-05-2020 18:50 7.7 96 0 1017.2
Sant'Anna di Vinadio 31-05-2020 19:00 7.7 97 0 1017.2
Sant'Anna di Vinadio 31-05-2020 19:10 7.9 97 0 1017.3
Sant'Anna di Vinadio 31-05-2020 19:20 7.7 99 0 1017.4
Sant'Anna di Vinadio 31-05-2020 19:30 7.7 99 0 1017.5
Sant'Anna di Vinadio 31-05-2020 19:40 7.5 104 0 1017.6
Sant'Anna di Vinadio 31-05-2020 19:50 7.6 104 0 1017.6
Sant'Anna di Vinadio 31-05-2020 20:00 7.6 104 0 1017.6
Sant'Anna di Vinadio 31-05-2020 20:10 7.5 104 0 1017.6
Sant'Anna di Vinadio 31-05-2020 20:20 7.4 104 0 1017.6
Sant'Anna di Vinadio 31-05-2020 20:30 7.4 104 0 1017.7
Sant'Anna di Vinadio 31-05-2020 20:40 7.1 104 0 1017.7
Sant'Anna di Vinadio 31-05-2020 20:50 7 104 0 1017.7
Sant'Anna di Vinadio 31-05-2020 21:00 7.1 104 0 1017.8
Sant'Anna di Vinadio 31-05-2020 21:10 7.2 104 0 1017.8
Sant'Anna di Vinadio 31-05-2020 21:20 7.3 104 0 1017.8
Sant'Anna di Vinadio 31-05-2020 21:30 7.2 104 0 1017.9
Sant'Anna di Vinadio 31-05-2020 21:40 7.3 104 0 1018
Sant'Anna di Vinadio 31-05-2020 21:50 7.5 95 0 1018.2
Sant'Anna di Vinadio 31-05-2020 22:00 7.8 89 0 1018.3
Sant'Anna di Vinadio 31-05-2020 22:10 7.9 79 0 1018.4
Sant'Anna di Vinadio 31-05-2020 22:20 7.8 77 0 1018.4
Sant'Anna di Vinadio 31-05-2020 22:30 8 76 0 1018.5
Sant'Anna di Vinadio 31-05-2020 22:40 8.1 72 0 1018.5
Sant'Anna di Vinadio 31-05-2020 22:50 8.5 68 0 1018.5
Sant'Anna di Vinadio 31-05-2020 23:00 8.5 63 0 1018.5
Sant'Anna di Vinadio 31-05-2020 23:10 8.3 63 0 1018.5
Sant'Anna di Vinadio 31-05-2020 23:20 8.2 64 0 1018.6
Sant'Anna di Vinadio 31-05-2020 23:30 8.1 65 0 1018.5
Sant'Anna di Vinadio 31-05-2020 23:40 7.9 66 0 1018.5
Sant'Anna di Vinadio 31-05-2020 23:50 7.8 68 0 1018.6
Sant'Anna di Vinadio 01-06-2020 00:00 7.7 68 0 1018.6
Sant'Anna di Vinadio 01-06-2020 00:10 7.7 68 0 1018.7
Sant'Anna di Vinadio 01-06-2020 00:20 7.7 67 0 1018.8
Sant'Anna di Vinadio 01-06-2020 00:30 7.7 66 0 1018.8
Sant'Anna di Vinadio 01-06-2020 00:40 7.5 67 0 1018.9
Sant'Anna di Vinadio 01-06-2020 00:50 7.9 66 0 1018.9
Sant'Anna di Vinadio 01-06-2020 01:00 7.9 62 0 1018.9
Sant'Anna di Vinadio 01-06-2020 01:10 7.8 65 0 1018.9
Sant'Anna di Vinadio 01-06-2020 01:20 7.6 66 0 1018.9
Sant'Anna di Vinadio 01-06-2020 01:30 7.8 64 0 1018.8
Sant'Anna di Vinadio 01-06-2020 01:40 7.8 63 0 1018.9
Sant'Anna di Vinadio 01-06-2020 01:50 7.7 63 0 1018.9
Sant'Anna di Vinadio 01-06-2020 02:00 7.7 64 0 1019
Sant'Anna di Vinadio 01-06-2020 02:10 7.6 65 0 1019
Sant'Anna di Vinadio 01-06-2020 02:20 7.5 66 0 1018.9
Sant'Anna di Vinadio 01-06-2020 02:30 7.7 66 0 1018.8
Sant'Anna di Vinadio 01-06-2020 02:40 7.7 64 0 1019
Sant'Anna di Vinadio 01-06-2020 02:50 7.8 63 0 1019
Sant'Anna di Vinadio 01-06-2020 03:00 7.8 63 0 1019
Sant'Anna di Vinadio 01-06-2020 03:10 7.6 65 0 1019
Sant'Anna di Vinadio 01-06-2020 03:20 7.5 65 0 1019
Sant'Anna di Vinadio 01-06-2020 03:30 7.5 66 0 1019
Sant'Anna di Vinadio 01-06-2020 03:40 7.3 66 0 1019
Sant'Anna di Vinadio 01-06-2020 03:50 7.2 67 0 1019
Sant'Anna di Vinadio 01-06-2020 04:00 7.1 67 0 1019
Sant'Anna di Vinadio 01-06-2020 04:10 7.2 67 0 1019
Sant'Anna di Vinadio 01-06-2020 04:20 7.2 67 0 1019
Sant'Anna di Vinadio 01-06-2020 04:30 7.2 67 0 1019
Sant'Anna di Vinadio 01-06-2020 04:40 7.2 68 0 1018.9
Sant'Anna di Vinadio 01-06-2020 04:50 7.1 68 0 1018.9
Sant'Anna di Vinadio 01-06-2020 05:00 7 69 0 1018.8
Sant'Anna di Vinadio 01-06-2020 05:10 6.9 69 0 1018.9
Sant'Anna di Vinadio 01-06-2020 05:20 6.9 69 0 1019
Sant'Anna di Vinadio 01-06-2020 05:30 6.8 70 0 1019
Sant'Anna di Vinadio 01-06-2020 05:40 6.7 71 0 1019
Sant'Anna di Vinadio 01-06-2020 05:50 6.5 72 0 1019.1
Sant'Anna di Vinadio 01-06-2020 06:00 6.2 74 0 1019.2
Sant'Anna di Vinadio 01-06-2020 06:10 5.8 77 0 1019.3
Sant'Anna di Vinadio 01-06-2020 06:20 5.4 79 0 1019.4
Sant'Anna di Vinadio 01-06-2020 06:30 5.5 83 0 1019.4
Sant'Anna di Vinadio 01-06-2020 06:40 5.6 85 0 1019.4
Sant'Anna di Vinadio 01-06-2020 06:50 5.5 86 0 1019.5
Sant'Anna di Vinadio 01-06-2020 07:00 5.4 90 0 1019.6
Sant'Anna di Vinadio 01-06-2020 07:10 5.5 93 0 1019.6
Sant'Anna di Vinadio 01-06-2020 07:20 5.5 98 0 1019.7
Sant'Anna di Vinadio 01-06-2020 07:30 5.5 104 0 1019.7
Sant'Anna di Vinadio 01-06-2020 07:40 5.6 104 0 1019.7
Sant'Anna di Vinadio 01-06-2020 07:50 5.6 104 0 1019.8
Sant'Anna di Vinadio 01-06-2020 08:00 5.7 104 0 1019.9
Sant'Anna di Vinadio 01-06-2020 08:10 5.8 104 0 1019.9
Sant'Anna di Vinadio 01-06-2020 08:20 6.1 104 0 1019.9
Sant'Anna di Vinadio 01-06-2020 08:30 6.5 104 0 1020
Sant'Anna di Vinadio 01-06-2020 08:40 7.3 104 0 1020
Sant'Anna di Vinadio 01-06-2020 08:50 7.7 91 0 1020
Sant'Anna di Vinadio 01-06-2020 09:00 7.6 81 0 1020.1
Sant'Anna di Vinadio 01-06-2020 09:10 7.9 80 0 1020.1
Sant'Anna di Vinadio 01-06-2020 09:20 8.3 74 0 1020.1
Sant'Anna di Vinadio 01-06-2020 09:30 8.2 74 0 1020.1
Sant'Anna di Vinadio 01-06-2020 09:40 8.2 72 0 1020.1
Sant'Anna di Vinadio 01-06-2020 09:50 8.4 69 0 1020.1
Sant'Anna di Vinadio 01-06-2020 10:00 8.7 69 0 1020.1
Sant'Anna di Vinadio 01-06-2020 10:10 8.9 69 0 1020.1
Sant'Anna di Vinadio 01-06-2020 10:20 8.7 69 0 1020.2
Sant'Anna di Vinadio 01-06-2020 10:30 8.5 68 0 1020.1
Sant'Anna di Vinadio 01-06-2020 10:40 8.7 69 0 1020.1
Sant'Anna di Vinadio 01-06-2020 10:50 9 69 0 1020.1
Sant'Anna di Vinadio 01-06-2020 11:00 9.1 68 0 1020.1
Sant'Anna di Vinadio 01-06-2020 11:10 9.1 68 0 1020.1
Sant'Anna di Vinadio 01-06-2020 11:20 9.3 68 0 1020.1
Sant'Anna di Vinadio 01-06-2020 11:30 10 68 0 1020.1
Sant'Anna di Vinadio 01-06-2020 11:40 10 64 0 1020
Sant'Anna di Vinadio 01-06-2020 11:50 10.2 66 0 1020
Sant'Anna di Vinadio 01-06-2020 12:00 10 66 0 1020
Sant'Anna di Vinadio 01-06-2020 12:10 9.9 66 0 1020.1
Sant'Anna di Vinadio 01-06-2020 12:20 10.2 69 0 1020
Sant'Anna di Vinadio 01-06-2020 12:30 10.3 68 0 1020
Sant'Anna di Vinadio 01-06-2020 12:40 10.4 68 0 1020
Sant'Anna di Vinadio 01-06-2020 12:50 10.6 68 0 1019.9
Sant'Anna di Vinadio 01-06-2020 13:00 10.4 65 0 1019.9
Sant'Anna di Vinadio 01-06-2020 13:10 10.6 63 0 1020
Sant'Anna di Vinadio 01-06-2020 13:20 10.4 64 0 1020.1
Sant'Anna di Vinadio 01-06-2020 13:30 10.7 62 0 1020.2
Sant'Anna di Vinadio 01-06-2020 13:40 10.9 62 0 1020.1
Sant'Anna di Vinadio 01-06-2020 13:50 10.4 66 0 1020.2
Sant'Anna di Vinadio 01-06-2020 14:00 10.5 69 0 1020.2
Sant'Anna di Vinadio 01-06-2020 14:10 10.6 72 0 1020.2
Sant'Anna di Vinadio 01-06-2020 14:20 9.9 72 0 1020.2
Sant'Anna di Vinadio 01-06-2020 14:30 10.9 71 0 1020.1
Sant'Anna di Vinadio 01-06-2020 14:40 12.1 61 0 1020.1
Sant'Anna di Vinadio 01-06-2020 14:50 12.1 72 0 1020.1
Sant'Anna di Vinadio 01-06-2020 15:00 10.3 77 0 1020.1
Sant'Anna di Vinadio 01-06-2020 15:10 9.6 78 0 1020.1
Sant'Anna di Vinadio 01-06-2020 15:20 9.6 78 0 1020.2
Sant'Anna di Vinadio 01-06-2020 15:30 9.8 78 0 1020.1
Sant'Anna di Vinadio 01-06-2020 15:40 10.4 75 0 1020.1
Sant'Anna di Vinadio 01-06-2020 15:50 10.3 73 0 1020
Sant'Anna di Vinadio 01-06-2020 16:00 10.4 74 0 1020
Sant'Anna di Vinadio 01-06-2020 16:10 10.2 71 0 1020.1
Sant'Anna di Vinadio 01-06-2020 16:20 10.3 71 0 1020.1
Sant'Anna di Vinadio 01-06-2020 16:30 10.3 71 0 1020.1
Sant'Anna di Vinadio 01-06-2020 16:40 10.1 74 0 1020.1
Sant'Anna di Vinadio 01-06-2020 16:50 11 73 0 1020.1
Sant'Anna di Vinadio 01-06-2020 17:00 11.4 72 0 1020.1
Sant'Anna di Vinadio 01-06-2020 17:10 11.4 71 0 1020.1
Sant'Anna di Vinadio 01-06-2020 17:20 10.7 77 0 1020
Sant'Anna di Vinadio 01-06-2020 17:30 9.8 79 0 1020
Sant'Anna di Vinadio 01-06-2020 17:40 9.4 79 0 1020
Sant'Anna di Vinadio 01-06-2020 17:50 9.3 80 0 1020
Sant'Anna di Vinadio 01-06-2020 18:00 9 87 0.2 1020
Sant'Anna di Vinadio 01-06-2020 18:10 8.8 88 0.5 1020
Sant'Anna di Vinadio 01-06-2020 18:20 8.5 82 2.4 1020.1
Sant'Anna di Vinadio 01-06-2020 18:30 8 81 1.8 1020.1
Sant'Anna di Vinadio 01-06-2020 18:40 7.9 78 0.8 1020.1
Sant'Anna di Vinadio 01-06-2020 18:50 7.9 79 0.9 1020.1
Sant'Anna di Vinadio 01-06-2020 19:00 7.6 84 1.4 1020.1
Sant'Anna di Vinadio 01-06-2020 19:10 7.5 85 0.4 1020
Sant'Anna di Vinadio 01-06-2020 19:20 7.5 85 0.1 1020
Sant'Anna di Vinadio 01-06-2020 19:30 7.7 77 0.5 1020
Sant'Anna di Vinadio 01-06-2020 19:40 7.8 82 0.2 1020
Sant'Anna di Vinadio 01-06-2020 19:50 7.9 82 0.2 1020.1
Sant'Anna di Vinadio 01-06-2020 20:00 8 81 0.1 1020.1
Sant'Anna di Vinadio 01-06-2020 20:10 7.9 81 0 1020.2
Sant'Anna di Vinadio 01-06-2020 20:20 8 79 0 1020.3
Sant'Anna di Vinadio 01-06-2020 20:30 7.7 79 0 1020.3
Sant'Anna di Vinadio 01-06-2020 20:40 7.8 79 0.1 1020.2
Sant'Anna di Vinadio 01-06-2020 20:50 7.7 78 0 1020.2
Sant'Anna di Vinadio 01-06-2020 21:00 7.8 77 0 1020.2
Sant'Anna di Vinadio 01-06-2020 21:10 7.8 75 0 1020.2
Sant'Anna di Vinadio 01-06-2020 21:20 7.9 74 0 1020.1
Sant'Anna di Vinadio 01-06-2020 21:30 8 73 0 1020
Sant'Anna di Vinadio 01-06-2020 21:40 8 71 0 1020.2
Sant'Anna di Vinadio 01-06-2020 21:50 7.9 71 0 1020.3
Sant'Anna di Vinadio 01-06-2020 22:00 7.9 73 0 1020.4
Sant'Anna di Vinadio 01-06-2020 22:10 7.8 73 0 1020.4
Sant'Anna di Vinadio 01-06-2020 22:20 7.8 76 0 1020.4
Sant'Anna di Vinadio 01-06-2020 22:30 7.6 76 0 1020.5
Sant'Anna di Vinadio 01-06-2020 22:40 7.7 75 0 1020.5
Sant'Anna di Vinadio 01-06-2020 22:50 7.7 72 0 1020.5
Sant'Anna di Vinadio 01-06-2020 23:00 7.7 71 0 1020.6
Sant'Anna di Vinadio 01-06-2020 23:10 7.7 71 0 1020.5
Sant'Anna di Vinadio 01-06-2020 23:20 7.6 72 0 1020.4
Sant'Anna di Vinadio 01-06-2020 23:30 7.6 72 0 1020.4
Sant'Anna di Vinadio 01-06-2020 23:40 7.4 73 0 1020.4
Sant'Anna di Vinadio 01-06-2020 23:50 7.4 72 0 1020.5
Sant'Anna di Vinadio 02-06-2020 00:00 7.3 73 0 1020.5
Sant'Anna di Vinadio 02-06-2020 00:10 7.4 73 0 1020.5
Sant'Anna di Vinadio 02-06-2020 00:20 7.5 71 0 1020.5
Sant'Anna di Vinadio 02-06-2020 00:30 7.5 70 0 1020.4
Sant'Anna di Vinadio 02-06-2020 00:40 7.6 70 0 1020.5
Sant'Anna di Vinadio 02-06-2020 00:50 7.6 69 0 1020.4
Sant'Anna di Vinadio 02-06-2020 01:00 7.6 68 0 1020.4
Sant'Anna di Vinadio 02-06-2020 01:10 7.6 67 0 1020.4
Sant'Anna di Vinadio 02-06-2020 01:20 7.6 68 0 1020.4
Sant'Anna di Vinadio 02-06-2020 01:30 7.7 68 0 1020.5
Sant'Anna di Vinadio 02-06-2020 01:40 8 66 0 1020.5
Sant'Anna di Vinadio 02-06-2020 01:50 8 64 0 1020.4
Sant'Anna di Vinadio 02-06-2020 02:00 7.9 65 0 1020.3
Sant'Anna di Vinadio 02-06-2020 02:10 7.9 65 0 1020.2
Sant'Anna di Vinadio 02-06-2020 02:20 8 63 0 1020.1
Sant'Anna di Vinadio 02-06-2020 02:30 8.1 63 0 1020.1
Sant'Anna di Vinadio 02-06-2020 02:40 8.1 62 0 1020.1
Sant'Anna di Vinadio 02-06-2020 02:50 7.9 63 0 1020.1
Sant'Anna di Vinadio 02-06-2020 03:00 7.8 64 0 1020
Sant'Anna di Vinadio 02-06-2020 03:10 7.7 65 0 1020
Sant'Anna di Vinadio 02-06-2020 03:20 7.6 65 0 1020
Sant'Anna di Vinadio 02-06-2020 03:30 7.6 66 0 1019.9
Sant'Anna di Vinadio 02-06-2020 03:40 7.6 66 0 1019.8
Sant'Anna di Vinadio 02-06-2020 03:50 7.5 66 0 1019.7
Sant'Anna di Vinadio 02-06-2020 04:00 7.6 66 0 1019.6
Sant'Anna di Vinadio 02-06-2020 04:10 7.6 66 0 1019.6
Sant'Anna di Vinadio 02-06-2020 04:20 7.6 66 0 1019.5
Sant'Anna di Vinadio 02-06-2020 04:30 7.5 67 0 1019.5
Sant'Anna di Vinadio 02-06-2020 04:40 7.3 69 0 1019.4
Sant'Anna di Vinadio 02-06-2020 04:50 7.1 70 0 1019.3
Sant'Anna di Vinadio 02-06-2020 05:00 7 71 0 1019.3
Sant'Anna di Vinadio 02-06-2020 05:10 7 71 0 1019.2
Sant'Anna di Vinadio 02-06-2020 05:20 7.1 70 0 1019.2
Sant'Anna di Vinadio 02-06-2020 05:30 7.2 70 0 1019.2
Sant'Anna di Vinadio 02-06-2020 05:40 7.2 71 0 1019.2
Sant'Anna di Vinadio 02-06-2020 05:50 7.2 71 0 1019.2
Sant'Anna di Vinadio 02-06-2020 06:00 7.2 72 0 1019.2
Sant'Anna di Vinadio 02-06-2020 06:10 7.2 71 0 1019.1
Sant'Anna di Vinadio 02-06-2020 06:20 7.2 71 0 1019.1
Sant'Anna di Vinadio 02-06-2020 06:30 7.1 72 0 1019.1
Sant'Anna di Vinadio 02-06-2020 06:40 7.2 71 0 1019.1
Sant'Anna di Vinadio 02-06-2020 06:50 7.3 71 0 1019.1
Sant'Anna di Vinadio 02-06-2020 07:00 7.5 71 0 1019.1
Sant'Anna di Vinadio 02-06-2020 07:10 7.5 71 0 1019.1
Sant'Anna di Vinadio 02-06-2020 07:20 7.4 70 0 1019.1
Sant'Anna di Vinadio 02-06-2020 07:30 7.6 70 0 1019
Sant'Anna di Vinadio 02-06-2020 07:40 7.6 70 0 1019
Sant'Anna di Vinadio 02-06-2020 07:50 7.6 70 0 1019
Sant'Anna di Vinadio 02-06-2020 08:00 7.8 70 0 1019
Sant'Anna di Vinadio 02-06-2020 08:10 7.8 70 0 1019
Sant'Anna di Vinadio 02-06-2020 08:20 8 72 0 1018.9
Sant'Anna di Vinadio 02-06-2020 08:30 8.4 72 0 1018.9
Sant'Anna di Vinadio 02-06-2020 08:40 8.6 72 0 1018.9
Sant'Anna di Vinadio 02-06-2020 08:50 8.9 71 0 1018.9
Sant'Anna di Vinadio 02-06-2020 09:00 8.9 71 0 1018.9
Sant'Anna di Vinadio 02-06-2020 09:10 9.3 69 0 1018.9
Sant'Anna di Vinadio 02-06-2020 09:20 10 68 0 1018.9
Sant'Anna di Vinadio 02-06-2020 09:30 10.3 64 0 1018.9
Sant'Anna di Vinadio 02-06-2020 09:40 10.4 64 0 1018.9
Sant'Anna di Vinadio 02-06-2020 09:50 10.4 62 0 1018.8
Sant'Anna di Vinadio 02-06-2020 10:00 10.1 60 0 1018.8
Sant'Anna di Vinadio 02-06-2020 10:10 10.2 60 0 1018.7
Sant'Anna di Vinadio 02-06-2020 10:20 10.2 62 0 1018.7
Sant'Anna di Vinadio 02-06-2020 10:30 10.2 61 0 1018.7
Sant'Anna di Vinadio 02-06-2020 10:40 10.6 63 0 1018.7
Sant'Anna di Vinadio 02-06-2020 10:50 11.1 61 0 1018.7
Sant'Anna di Vinadio 02-06-2020 11:00 10.4 60 0 1018.7
Sant'Anna di Vinadio 02-06-2020 11:10 10.1 62 0 1018.7
Sant'Anna di Vinadio 02-06-2020 11:20 10.4 59 0 1018.7
Sant'Anna di Vinadio 02-06-2020 11:30 10.8 58 0 1018.7
Sant'Anna di Vinadio 02-06-2020 11:40 11.7 58 0 1018.6
Sant'Anna di Vinadio 02-06-2020 11:50 12.1 55 0 1018.7
Sant'Anna di Vinadio 02-06-2020 12:00 12.4 54 0 1018.6
Sant'Anna di Vinadio 02-06-2020 12:10 12.3 52 0 1018.6
Sant'Anna di Vinadio 02-06-2020 12:20 12.4 52 0 1018.6
Sant'Anna di Vinadio 02-06-2020 12:30 12.2 53 0 1018.5
Sant'Anna di Vinadio 02-06-2020 12:40 12.2 53 0 1018.5
Sant'Anna di Vinadio 02-06-2020 12:50 12.5 53 0 1018.4
Sant'Anna di Vinadio 02-06-2020 13:00 11.9 57 0 1018.4
Sant'Anna di Vinadio 02-06-2020 13:10 11.3 58 0 1018.4
Sant'Anna di Vinadio 02-06-2020 13:20 12.3 57 0 1018.3
Sant'Anna di Vinadio 02-06-2020 13:30 12.6 51 0 1018.3
Sant'Anna di Vinadio 02-06-2020 13:40 12.9 53 0 1018.3
Sant'Anna di Vinadio 02-06-2020 13:50 13.1 52 0 1018.3
Sant'Anna di Vinadio 02-06-2020 14:00 13 54 0 1018.2
Sant'Anna di Vinadio 02-06-2020 14:10 13.3 56 0 1018.1
Sant'Anna di Vinadio 02-06-2020 14:20 12.9 54 0 1018.1
Sant'Anna di Vinadio 02-06-2020 14:30 13.3 54 0 1018
Sant'Anna di Vinadio 02-06-2020 14:40 13.6 53 0 1017.9
Sant'Anna di Vinadio 02-06-2020 14:50 13.4 53 0 1017.8
Sant'Anna di Vinadio 02-06-2020 15:00 14 54 0 1017.7
Sant'Anna di Vinadio 02-06-2020 15:10 14.4 52 0 1017.7
Sant'Anna di Vinadio 02-06-2020 15:20 13.5 54 0 1017.7
Sant'Anna di Vinadio 02-06-2020 15:30 13.5 53 0 1017.7
Sant'Anna di Vinadio 02-06-2020 15:40 13.1 53 0 1017.7
Sant'Anna di Vinadio 02-06-2020 15:50 12.9 55 0 1017.7
Sant'Anna di Vinadio 02-06-2020 16:00 12.3 58 0 1017.6
Sant'Anna di Vinadio 02-06-2020 16:10 12.2 57 0 1017.6
Sant'Anna di Vinadio 02-06-2020 16:20 12.6 56 0 1017.5
Sant'Anna di Vinadio 02-06-2020 16:30 12.5 59 0 1017.4
Sant'Anna di Vinadio 02-06-2020 16:40 11.9 61 0 1017.4
Sant'Anna di Vinadio 02-06-2020 16:50 11.3 64 0 1017.5
Sant'Anna di Vinadio 02-06-2020 17:00 10.9 68 0 1017.5
Sant'Anna di Vinadio 02-06-2020 17:10 10.1 69 0 1017.6
Sant'Anna di Vinadio 02-06-2020 17:20 10 68 0 1017.7
Sant'Anna di Vinadio 02-06-2020 17:30 9.4 66 0 1017.8
Sant'Anna di Vinadio 02-06-2020 17:40 9.5 63 0 1017.8
Sant'Anna di Vinadio 02-06-2020 17:50 9.6 58 0 1017.8
Sant'Anna di Vinadio 02-06-2020 18:00 9.7 56 0 1017.8
Sant'Anna di Vinadio 02-06-2020 18:10 9.8 54 0 1017.7
Sant'Anna di Vinadio 02-06-2020 18:20 9.5 54 0 1017.5
Sant'Anna di Vinadio 02-06-2020 18:30 9.6 54 0 1017.5
Sant'Anna di Vinadio 02-06-2020 18:40 9.4 55 0 1017.5
Sant'Anna di Vinadio 02-06-2020 18:50 9.4 54 0 1017.5
Sant'Anna di Vinadio 02-06-2020 19:00 9.4 54 0 1017.3
Sant'Anna di Vinadio 02-06-2020 19:10 9.4 56 0 1017.3
Sant'Anna di Vinadio 02-06-2020 19:20 9.1 57 0 1017.2
Sant'Anna di Vinadio 02-06-2020 19:30 9.1 58 0 1017.1
Sant'Anna di Vinadio 02-06-2020 19:40 8.9 59 0 1017.1
Sant'Anna di Vinadio 02-06-2020 19:50 9 59 0 1017.2
Sant'Anna di Vinadio 02-06-2020 20:00 9 58 0 1017.1
Sant'Anna di Vinadio 02-06-2020 20:10 9 58 0 1017.1
Sant'Anna di Vinadio 02-06-2020 20:20 8.9 58 0 1017
Sant'Anna di Vinadio 02-06-2020 20:30 9 58 0 1016.9
Sant'Anna di Vinadio 02-06-2020 20:40 9.3 57 0 1016.9
Sant'Anna di Vinadio 02-06-2020 20:50 9.4 57 0 1016.8
Sant'Anna di Vinadio 02-06-2020 21:00 9.1 58 0 1016.9
Sant'Anna di Vinadio 02-06-2020 21:10 9.4 56 0 1017
Sant'Anna di Vinadio 02-06-2020 21:20 9.6 54 0 1017
Sant'Anna di Vinadio 02-06-2020 21:30 9.6 54 0 1017.1
Sant'Anna di Vinadio 02-06-2020 21:40 9.8 54 0 1017.1
Sant'Anna di Vinadio 02-06-2020 21:50 9.8 54 0 1017.2
Sant'Anna di Vinadio 02-06-2020 22:00 9.8 54 0 1017.2
Sant'Anna di Vinadio 02-06-2020 22:10 9.8 54 0 1017.1
Sant'Anna di Vinadio 02-06-2020 22:20 10.1 53 0 1017.3
Sant'Anna di Vinadio 02-06-2020 22:30 10.1 52 0 1017.3
Sant'Anna di Vinadio 02-06-2020 22:40 10.1 53 0 1017.3
Sant'Anna di Vinadio 02-06-2020 22:50 10.2 51 0 1017.4
Sant'Anna di Vinadio 02-06-2020 23:00 10.2 51 0 1017.4
Sant'Anna di Vinadio 02-06-2020 23:10 10.2 51 0 1017.4
Sant'Anna di Vinadio 02-06-2020 23:20 9.9 50 0 1017.3
Sant'Anna di Vinadio 02-06-2020 23:30 9.7 49 0 1017.2
Sant'Anna di Vinadio 02-06-2020 23:40 9.6 47 0 1017.2
Sant'Anna di Vinadio 02-06-2020 23:50 9.6 47 0 1017.2
Sant'Anna di Vinadio 03-06-2020 00:00 9.6 47 0 1017.1
Sant'Anna di Vinadio 03-06-2020 00:10 9.6 46 0 1017.1
Sant'Anna di Vinadio 03-06-2020 00:20 9.4 47 0 1017.1
Sant'Anna di Vinadio 03-06-2020 00:30 9.3 48 0 1017.1
Sant'Anna di Vinadio 03-06-2020 00:40 9.2 48 0 1017.1
Sant'Anna di Vinadio 03-06-2020 00:50 9 49 0 1017.1
Sant'Anna di Vinadio 03-06-2020 01:00 8.9 51 0 1017
Sant'Anna di Vinadio 03-06-2020 01:10 8.7 52 0 1017.1
Sant'Anna di Vinadio 03-06-2020 01:20 8.9 53 0 1017
Sant'Anna di Vinadio 03-06-2020 01:30 8.6 55 0 1017
Sant'Anna di Vinadio 03-06-2020 01:40 8.5 56 0 1017
Sant'Anna di Vinadio 03-06-2020 01:50 8.4 59 0 1016.8
Sant'Anna di Vinadio 03-06-2020 02:00 8.1 59 0 1016.8
Sant'Anna di Vinadio 03-06-2020 02:10 8 60 0 1017
Sant'Anna di Vinadio 03-06-2020 02:20 7.6 64 0 1017
Sant'Anna di Vinadio 03-06-2020 02:30 7.1 66 0 1017
Sant'Anna di Vinadio 03-06-2020 02:40 6.8 68 0 1016.8
Sant'Anna di Vinadio 03-06-2020 02:50 6.4 69 0 1016.7
Sant'Anna di Vinadio 03-06-2020 03:00 6.2 70 0 1016.6
Sant'Anna di Vinadio 03-06-2020 03:10 6.3 70 0 1016.4
Sant'Anna di Vinadio 03-06-2020 03:20 6.2 70 0 1016.3
Sant'Anna di Vinadio 03-06-2020 03:30 6.4 70 0 1016.2
Sant'Anna di Vinadio 03-06-2020 03:40 6.5 70 0 1016
Sant'Anna di Vinadio 03-06-2020 03:50 6.7 68 0 1015.8
Sant'Anna di Vinadio 03-06-2020 04:00 6.9 66 0 1015.7
Sant'Anna di Vinadio 03-06-2020 04:10 7.2 66 0 1015.5
Sant'Anna di Vinadio 03-06-2020 04:20 7.6 64 0 1015.4
Sant'Anna di Vinadio 03-06-2020 04:30 8.4 59 0 1015.2
Sant'Anna di Vinadio 03-06-2020 04:40 8.5 55 0 1015.1
Sant'Anna di Vinadio 03-06-2020 04:50 8.6 54 0 1015
Sant'Anna di Vinadio 03-06-2020 05:00 8.7 52 0 1014.9
Sant'Anna di Vinadio 03-06-2020 05:10 8.7 52 0 1014.9
Sant'Anna di Vinadio 03-06-2020 05:20 8.6 52 0 1014.9
Sant'Anna di Vinadio 03-06-2020 05:30 8.8 51 0 1014.8
Sant'Anna di Vinadio 03-06-2020 05:40 8.9 50 0 1014.7
Sant'Anna di Vinadio 03-06-2020 05:50 8.9 52 0 1014.7
Sant'Anna di Vinadio 03-06-2020 06:00 8.6 53 0 1014.7
Sant'Anna di Vinadio 03-06-2020 06:10 8.5 52 0 1014.7
Sant'Anna di Vinadio 03-06-2020 06:20 8.6 53 0 1014.6
Sant'Anna di Vinadio 03-06-2020 06:30 8.6 52 0 1014.6
Sant'Anna di Vinadio 03-06-2020 06:40 8.6 52 0 1014.6
Sant'Anna di Vinadio 03-06-2020 06:50 8.7 52 0 1014.6
Sant'Anna di Vinadio 03-06-2020 07:00 8.8 52 0 1014.6
Sant'Anna di Vinadio 03-06-2020 07:10 8.7 52 0 1014.6
Sant'Anna di Vinadio 03-06-2020 07:20 9.3 53 0 1014.6
Sant'Anna di Vinadio 03-06-2020 07:30 9.7 52 0 1014.6
Sant'Anna di Vinadio 03-06-2020 07:40 10 52 0 1014.5
Sant'Anna di Vinadio 03-06-2020 07:50 10.2 53 0 1014.5
Sant'Anna di Vinadio 03-06-2020 08:00 10.3 52 0 1014.5
Sant'Anna di Vinadio 03-06-2020 08:10 10.6 52 0 1014.4
Sant'Anna di Vinadio 03-06-2020 08:20 10.7 50 0 1014.4
Sant'Anna di Vinadio 03-06-2020 08:30 10.9 49 0 1014.3
Sant'Anna di Vinadio 03-06-2020 08:40 11.3 47 0 1014.3
Sant'Anna di Vinadio 03-06-2020 08:50 11.3 46 0 1014.3
Sant'Anna di Vinadio 03-06-2020 09:00 11.1 46 0 1014.3
Sant'Anna di Vinadio 03-06-2020 09:10 11.1 44 0 1014.2
Sant'Anna di Vinadio 03-06-2020 09:20 11.2 44 0 1014.2
Sant'Anna di Vinadio 03-06-2020 09:30 11.7 47 0 1014.3
Sant'Anna di Vinadio 03-06-2020 09:40 11.8 48 0 1014.2
Sant'Anna di Vinadio 03-06-2020 09:50 11.8 48 0 1014.1
Sant'Anna di Vinadio 03-06-2020 10:00 11.8 48 0 1014.1
Sant'Anna di Vinadio 03-06-2020 10:10 11.7 50 0 1014.1
Sant'Anna di Vinadio 03-06-2020 10:20 11.9 49 0 1014.1
Sant'Anna di Vinadio 03-06-2020 10:30 11.9 49 0 1014.1
Sant'Anna di Vinadio 03-06-2020 10:40 12 52 0 1014
Sant'Anna di Vinadio 03-06-2020 10:50 11.8 52 0 1014
Sant'Anna di Vinadio 03-06-2020 11:00 11.9 54 0 1014
Sant'Anna di Vinadio 03-06-2020 11:10 11.7 55 0 1014
Sant'Anna di Vinadio 03-06-2020 11:20 12.2 54 0 1013.9
Sant'Anna di Vinadio 03-06-2020 11:30 12.2 54 0 1013.9
Sant'Anna di Vinadio 03-06-2020 11:40 12.2 53 0 1013.8
Sant'Anna di Vinadio 03-06-2020 11:50 12.2 54 0 1013.8
Sant'Anna di Vinadio 03-06-2020 12:00 12.3 54 0 1013.8
Sant'Anna di Vinadio 03-06-2020 12:10 12.8 54 0 1013.8
Sant'Anna di Vinadio 03-06-2020 12:20 12.8 51 0 1013.7
Sant'Anna di Vinadio 03-06-2020 12:30 12.6 51 0 1013.7
Sant'Anna di Vinadio 03-06-2020 12:40 12.6 53 0 1013.7
Sant'Anna di Vinadio 03-06-2020 12:50 12.9 54 0 1013.6
Sant'Anna di Vinadio 03-06-2020 13:00 13.3 51 0 1013.6
Sant'Anna di Vinadio 03-06-2020 13:10 13.3 51 0 1013.6
Sant'Anna di Vinadio 03-06-2020 13:20 13.9 52 0 1013.5
Sant'Anna di Vinadio 03-06-2020 13:30 12.9 50 0 1013.3
Sant'Anna di Vinadio 03-06-2020 13:40 12.7 52 0 1013.3
Sant'Anna di Vinadio 03-06-2020 13:50 12.4 57 0 1013.3
Sant'Anna di Vinadio 03-06-2020 14:00 12.3 57 0 1013.2
Sant'Anna di Vinadio 03-06-2020 14:10 12 59 0 1013.1
Sant'Anna di Vinadio 03-06-2020 14:20 11.8 59 0 1013
Sant'Anna di Vinadio 03-06-2020 14:30 11.4 60 0 1013
Sant'Anna di Vinadio 03-06-2020 14:40 11.6 60 0.1 1012.8
Sant'Anna di Vinadio 03-06-2020 14:50 11.5 64 0.2 1012.8
Sant'Anna di Vinadio 03-06-2020 15:00 10.9 66 0 1012.9
Sant'Anna di Vinadio 03-06-2020 15:10 10.5 64 0 1012.8
Sant'Anna di Vinadio 03-06-2020 15:20 9.4 66 0 1013
Sant'Anna di Vinadio 03-06-2020 15:30 9.4 64 0 1012.8
Sant'Anna di Vinadio 03-06-2020 15:40 9.3 66 0 1012.7
Sant'Anna di Vinadio 03-06-2020 15:50 8.8 71 0 1012.6
Sant'Anna di Vinadio 03-06-2020 16:00 8.3 72 0.6 1012.6
Sant'Anna di Vinadio 03-06-2020 16:10 8.1 74 1.1 1012.7
Sant'Anna di Vinadio 03-06-2020 16:20 7.7 78 1.6 1012.7
Sant'Anna di Vinadio 03-06-2020 16:30 7.5 81 1 1012.6
Sant'Anna di Vinadio 03-06-2020 16:40 7.3 86 0.2 1012.3
Sant'Anna di Vinadio 03-06-2020 16:50 7.8 86 0 1012.1
Sant'Anna di Vinadio 03-06-2020 17:00 8.5 78 0 1012.4
Sant'Anna di Vinadio 03-06-2020 17:10 8.3 78 0 1012.4

Riassuntivo giornaliero del 03-06-2020